TimeCDT,TemperatureF,Dew PointF,Humidity,Sea Level PressureIn,VisibilityMPH,Wind Direction,Wind SpeedMPH,Gust SpeedMPH,PrecipitationIn,Events,Conditions,WindDirDegrees,DateUTC
12:15 AM,54.1,54.1,100,30.04,10.0,SE,4.6,-,N/A,,Clear,130,2013-03-21 05:15:00
12:35 AM,54.7,54.7,100,30.04,10.0,ESE,3.5,-,N/A,,Clear,120,2013-03-21 05:35:00
12:55 AM,53.6,53.6,100,30.04,10.0,SE,3.5,-,N/A,,Clear,140,2013-03-21 05:55:00
1:15 AM,53.6,53.6,100,30.03,10.0,ESE,4.6,-,N/A,,Clear,120,2013-03-21 06:15:00
1:35 AM,54.0,54.0,100,30.02,10.0,ESE,4.6,-,N/A,,Clear,110,2013-03-21 06:35:00
1:55 AM,54.7,54.7,100,30.01,10.0,SE,4.6,-,N/A,,Clear,130,2013-03-21 06:55:00
2:15 AM,55.0,55.0,100,30.01,10.0,ESE,4.6,-,N/A,,Clear,110,2013-03-21 07:15:00
2:35 AM,54.3,54.3,100,30.00,10.0,ESE,4.6,-,N/A,,Clear,110,2013-03-21 07:35:00
2:55 AM,54.3,54.3,100,30.00,10.0,East,3.5,-,N/A,,Scattered Clouds,100,2013-03-21 07:55:00
3:15 AM,53.6,53.6,100,29.99,10.0,Calm,Calm,-,N/A,,Clear,0,2013-03-21 08:15:00
3:35 AM,54.5,54.5,100,29.98,10.0,Calm,Calm,-,N/A,,Mostly Cloudy,0,2013-03-21 08:35:00
3:55 AM,54.9,54.9,100,29.98,10.0,Calm,Calm,-,N/A,,Overcast,0,2013-03-21 08:55:00
4:15 AM,54.7,54.7,100,29.98,10.0,ENE,3.5,-,N/A,,Mostly Cloudy,70,2013-03-21 09:15:00
4:35 AM,53.2,53.2,100,29.97,10.0,East,3.5,-,N/A,,Scattered Clouds,90,2013-03-21 09:35:00
4:55 AM,52.5,52.5,100,29.96,10.0,East,3.5,-,N/A,,Mostly Cloudy,80,2013-03-21 09:55:00
5:15 AM,52.7,52.7,100,29.96,10.0,East,3.5,-,N/A,,Mostly Cloudy,90,2013-03-21 10:15:00
5:35 AM,53.1,53.1,100,29.96,10.0,East,4.6,-,N/A,,Mostly Cloudy,90,2013-03-21 10:35:00
5:55 AM,52.9,52.9,100,29.95,10.0,ESE,5.8,-,N/A,,Mostly Cloudy,110,2013-03-21 10:55:00
6:15 AM,53.1,53.1,100,29.95,10.0,East,4.6,-,N/A,,Scattered Clouds,100,2013-03-21 11:15:00
6:35 AM,53.8,53.8,100,29.95,10.0,East,5.8,-,N/A,,Mostly Cloudy,100,2013-03-21 11:35:00
6:55 AM,54.7,54.7,100,29.96,10.0,East,4.6,-,N/A,,Mostly Cloudy,90,2013-03-21 11:55:00
7:15 AM,55.8,55.8,100,29.96,10.0,East,4.6,-,N/A,,Overcast,100,2013-03-21 12:15:00
7:35 AM,55.6,55.6,100,29.96,10.0,ESE,4.6,-,N/A,,Mostly Cloudy,110,2013-03-21 12:35:00
7:55 AM,55.2,55.2,100,29.96,10.0,East,5.8,-,N/A,,Scattered Clouds,80,2013-03-21 12:55:00
8:15 AM,56.5,56.5,100,29.96,10.0,East,5.8,-,N/A,,Scattered Clouds,100,2013-03-21 13:15:00
8:35 AM,59.0,59.0,100,29.95,10.0,ESE,6.9,-,N/A,,Scattered Clouds,110,2013-03-21 13:35:00
8:55 AM,61.2,61.2,100,29.95,10.0,ESE,6.9,-,N/A,,Scattered Clouds,110,2013-03-21 13:55:00
9:15 AM,64.2,60.6,88,29.94,10.0,ESE,9.2,-,N/A,,Clear,120,2013-03-21 14:15:00
9:35 AM,66.7,57.0,71,29.95,10.0,SE,13.8,-,N/A,,Clear,130,2013-03-21 14:35:00
9:55 AM,68.7,56.3,64,29.95,10.0,SE,12.7,18.4,N/A,,Mostly Cloudy,130,2013-03-21 14:55:00
10:15 AM,69.3,54.5,59,29.95,10.0,SE,16.1,23.0,N/A,,Mostly Cloudy,140,2013-03-21 15:15:00
10:35 AM,71.4,53.4,53,29.94,10.0,SE,17.3,23.0,N/A,,Scattered Clouds,140,2013-03-21 15:35:00
10:55 AM,72.5,52.9,50,29.93,10.0,SE,19.6,25.3,N/A,,Clear,140,2013-03-21 15:55:00
11:15 AM,73.4,53.4,49,29.93,10.0,SSE,19.6,25.3,N/A,,Scattered Clouds,150,2013-03-21 16:15:00
11:35 AM,73.4,53.8,50,29.92,10.0,SSE,24.2,29.9,N/A,,Scattered Clouds,160,2013-03-21 16:35:00
11:55 AM,74.1,54.5,50,29.92,10.0,South,20.7,26.5,N/A,,Scattered Clouds,170,2013-03-21 16:55:00
12:15 PM,74.8,55.4,51,29.91,10.0,SSE,19.6,28.8,N/A,,Scattered Clouds,150,2013-03-21 17:15:00
12:35 PM,74.7,56.3,53,29.90,10.0,SE,19.6,25.3,N/A,,Mostly Cloudy,140,2013-03-21 17:35:00
12:55 PM,73.6,56.5,55,29.88,10.0,SSE,19.6,26.5,N/A,,Overcast,150,2013-03-21 17:55:00
1:15 PM,74.7,56.5,53,29.87,10.0,SSE,21.9,28.8,N/A,,Overcast,150,2013-03-21 18:15:00
1:35 PM,74.3,56.5,54,29.86,10.0,SSE,16.1,24.2,N/A,,Overcast,150,2013-03-21 18:35:00
1:55 PM,73.8,56.7,55,29.84,10.0,SE,16.1,24.2,N/A,,Overcast,140,2013-03-21 18:55:00
2:15 PM,73.2,56.8,56,29.84,10.0,SSE,17.3,23.0,N/A,,Overcast,160,2013-03-21 19:15:00
2:35 PM,72.5,57.6,59,29.82,10.0,SSE,17.3,25.3,N/A,,Overcast,160,2013-03-21 19:35:00
2:55 PM,72.9,58.1,60,29.81,10.0,SSE,15.0,-,N/A,,Overcast,150,2013-03-21 19:55:00
3:15 PM,72.9,58.5,60,29.80,10.0,SSE,16.1,26.5,N/A,,Overcast,150,2013-03-21 20:15:00
3:35 PM,72.9,58.8,61,29.78,10.0,SSE,21.9,25.3,N/A,,Overcast,160,2013-03-21 20:35:00
3:55 PM,72.9,59.0,62,29.77,10.0,SSE,19.6,-,N/A,,Overcast,150,2013-03-21 20:55:00
4:15 PM,72.7,59.5,63,29.76,10.0,SSE,19.6,26.5,N/A,,Overcast,150,2013-03-21 21:15:00
4:35 PM,72.3,59.9,65,29.75,10.0,SSE,16.1,23.0,N/A,,Overcast,160,2013-03-21 21:35:00
4:55 PM,72.0,60.1,66,29.75,10.0,SSE,15.0,21.9,N/A,,Overcast,150,2013-03-21 21:55:00
5:15 PM,71.6,60.6,68,29.74,10.0,SE,16.1,-,N/A,,Overcast,140,2013-03-21 22:15:00
5:35 PM,70.9,60.8,70,29.74,10.0,SSE,13.8,-,N/A,,Overcast,150,2013-03-21 22:35:00
5:55 PM,70.3,61.0,72,29.75,10.0,SSE,12.7,-,N/A,,Overcast,150,2013-03-21 22:55:00
6:15 PM,70.0,61.2,73,29.74,10.0,SE,11.5,-,N/A,,Overcast,140,2013-03-21 23:15:00
6:35 PM,69.8,61.5,75,29.73,10.0,SE,12.7,-,N/A,,Overcast,140,2013-03-21 23:35:00
6:55 PM,68.7,62.2,80,29.74,5.0,SSE,12.7,20.7,N/A,,Haze,150,2013-03-21 23:55:00
7:15 PM,67.6,63.0,85,29.73,7.0,SSE,12.7,20.7,N/A,,Overcast,150,2013-03-22 00:15:00
7:35 PM,67.3,63.5,88,29.72,10.0,SE,10.4,-,N/A,,Overcast,140,2013-03-22 00:35:00
7:55 PM,67.1,64.0,90,29.72,10.0,SE,10.4,-,N/A,,Overcast,140,2013-03-22 00:55:00
8:15 PM,67.5,63.9,88,29.73,10.0,SE,9.2,-,N/A,,Overcast,140,2013-03-22 01:15:00
8:35 PM,67.8,63.5,86,29.73,10.0,SE,9.2,-,N/A,,Overcast,140,2013-03-22 01:35:00
8:55 PM,68.2,63.5,85,29.73,10.0,SE,10.4,-,N/A,,Overcast,140,2013-03-22 01:55:00
9:15 PM,68.4,63.5,84,29.73,10.0,SE,10.4,-,N/A,,Overcast,140,2013-03-22 02:15:00
9:35 PM,68.7,63.5,83,29.74,10.0,SSE,10.4,16.1,N/A,,Overcast,150,2013-03-22 02:35:00
9:55 PM,68.9,63.5,83,29.74,10.0,SSE,11.5,-,N/A,,Overcast,150,2013-03-22 02:55:00
10:15 PM,68.7,63.5,83,29.73,10.0,SSE,11.5,-,N/A,,Overcast,150,2013-03-22 03:15:00
10:35 PM,68.4,63.7,85,29.75,10.0,SSE,8.1,-,N/A,,Overcast,150,2013-03-22 03:35:00
10:55 PM,68.5,64.0,85,29.75,10.0,SSE,8.1,-,N/A,,Overcast,150,2013-03-22 03:55:00
11:15 PM,68.5,64.4,87,29.74,10.0,SSE,8.1,-,N/A,,Overcast,160,2013-03-22 04:15:00
11:35 PM,68.5,64.6,87,29.74,10.0,SSE,9.2,-,N/A,,Overcast,160,2013-03-22 04:35:00
11:55 PM,68.5,64.8,88,29.73,10.0,SSE,9.2,-,N/A,,Overcast,160,2013-03-22 04:55:00